Regional Weather Roundup
Issued by NWS

Home | Current Version | Previous Version | Text Only | Print | Product List | Glossary Off
Versions: 1 2 3 4 5 6 7 8 9 10 11 12 13 14 15 16 17 18 19 20 21 22 23 24 25 26 27 28 29 30 31 32 33 34 35 36 37 38 39 40 41 42 43 44 45 46 47 48 49 50

000
ASUS45 KSLC 182010
RWRUT

UTAH REGIONAL WEATHER ROUNDUP
NATIONAL WEATHER SERVICE SALT LAKE CITY UT
100 PM MST THU DEC 18 2014

UTZ001>011-023>025-182100-

NORTHERN UTAH

CITY           SKY/WX    TMP DP  RH WIND       PRES   REMARKS
BRIGHAM CITY   CLOUDY    40  31  69 CALM      30.15F
HILL AFB       PTSUNNY   39  32  75 W2        30.13F
LOGAN          MOSUNNY   39  27  62 CALM      30.13F
OGDEN          CLOUDY    40  32  73 CALM      30.13F
PROVO AIRPORT  MOSUNNY   39  34  81 CALM      30.15F
SALT LAKE CITY MOSUNNY   42  32  67 SE7       30.13F
VERNAL         CLOUDY    26  23  88 SE5       30.17F WCI  20
WENDOVER       MOSUNNY   36  28  75 SE3       30.15F
HEBER CITY     CLOUDY    34  30  86 CALM      30.12S
WEST JORDAN    PTSUNNY   41  37  87 S7        30.14F

$$

UTZ012>022-026-027-182100-

SOUTHERN/CENTRAL UTAH

CITY           SKY/WX    TMP DP  RH WIND       PRES   REMARKS
BLANDING       CLOUDY    36  32  85 CALM      30.19F
BRYCE CANYON   PTSUNNY   34  21  59 W8        30.11F WCI  27
CEDAR CITY     MOSUNNY   40  29  64 N5        30.12F
DELTA          MOSUNNY   42  32  68 SW3       30.14F
MILFORD        SUNNY     43  30  60 S7        30.12F
MOAB/CYNLANDS  CLOUDY    39  34  82 W5        30.13F
PRICE          CLOUDY    31  27  85 E3        30.12S
ST GEORGE      MOCLDY    48  37  66 CALM      30.17F
KANAB          MOSUNNY   41  34  75 CALM      30.17F

$$

REGIONAL REPORTS     COLORADO/ARIZONA

CITY           SKY/WX    TMP DP  RH WIND       PRES   REMARKS
CRAIG, CO      CLOUDY    27  24  89 CALM      30.13F
GRAND JUNCTION CLOUDY    37  32  82 W3        30.13F
RIFLE          PTSUNNY   39  31  72 W7        30.10F WCI  34
MONTROSE       CLOUDY    37  30  75 N3        30.12F
CORTEZ         LGT SNOW  33  30  88 CALM      30.12F FOG
PAGE, AZ       CLOUDY    44  33  65 CALM      30.14F
GRAND CANYON   PTSUNNY   34  30  85 CALM      30.13F
KINGMAN        CLOUDY    48  37  65 N3        30.15F
FLAGSTAFF      LGT SNOW  33  29  85 NE8       30.10F FOG     WCI  26

$$

REGIONAL REPORTS    NEVADA/IDAHO/WYOMING

CITY           SKY/WX    TMP DP  RH WIND       PRES   REMARKS
LAS VEGAS, NV  PTSUNNY   53  40  61 S5        30.13F
ELY            SUNNY     39  26  59 W8        30.12F WCI  33
ELKO           CLOUDY    36  30  79 CALM      30.13F
POCATELLO, ID  MOSUNNY   35  29  78 NW6       30.13F WCI  30
BURLEY         PTSUNNY   42  29  59 CALM      30.11F
EVANSTON, WY   CLOUDY    31  23  72 SW10      30.09F WCI  22
ROCK SPRINGS   MOSUNNY   31  18  58 W10       30.07F WCI  22
KEMMERER       CLOUDY    32  23  69 SW12      30.08F WCI  23

$$


USA.gov is the U.S. government's official web portal to all federal, state and local government web resources and services.